Location: Gleizolles
(44.4833°N, 6.7667°E)
Time: 20:40:00
(UTC+00:00)

Tiros 1 despin weight - Pass Details

Date: 26 June 2024
Orbit: 576 x 620 km, 48.2° (Epoch: 19 July)

Event Time Altitude Azimuth Distance (km) Brightness Sun altitude
Rises 10:15:20 0° 231° (SW) 2,868 ? 63.2°
Reaches altitude 10° 10:17:39 10° 227° (SW) 1,971 ? 63.5°
Maximum altitude 10:22:05 56° 150° (SSE) 741 ? 64.0°
Drops below altitude 10° 10:26:34 10° 72° (ENE) 1,989 ? 64.5°
Sets 10:28:55 0° 68° (ENE) 2,898 ? 64.8°
